Date String (YYYY-MM-DD hh:mm:ss) UTC,Instrument flags,Ambient pressure (hPa),Sample flow (lpm),Bypass flow (lpm),Sample temperature (°C),Ambient temperature (°C),ASC tube jacket temperature (°C),LED temperature (°C),Box temperature (°C),Sample RH (%),Span deviation,Mass concentration (μg/m³),Mass concentration (μg/m³),Mass concentration (μg/m³)
DateTimeUTC,F1_M11,P_M11,Q1_M11,Q2_M11,T1_M11,T2_M11,T3_M11,T4_M11,T5_M11,U1_M11,ZSPAN_M11,X0_M11,X2_M11,X1_M11
2023-01-17 06:00:00,,0814.1,4.99,0.00,22.7,21.8,00.0,31.5,24.6,15.6,-002.2,0024.17,0015.86,0014.55
2023-01-17 06:01:00,,0814.2,4.99,0.00,22.7,21.7,00.0,31.5,24.5,15.6,-001.9,0024.19,0015.85,0014.58
2023-01-17 06:02:00,,0814.1,4.99,0.00,22.7,21.5,00.0,31.5,24.5,15.6,-002.0,0023.88,0015.76,0014.54
2023-01-17 06:03:00,,0814.0,4.99,0.00,22.7,21.4,00.0,31.5,24.4,15.6,-001.8,0023.74,0015.69,0014.47
2023-01-17 06:04:00,,0814.0,5.00,0.00,22.7,21.3,00.0,31.5,24.4,15.6,-001.7,0024.62,0015.63,0014.44
2023-01-17 06:05:00,,0814.0,5.00,0.00,22.6,21.3,00.0,31.5,24.4,15.6,-001.8,0024.74,0015.63,0014.45
2023-01-17 06:06:00,,0814.0,4.99,0.00,22.6,21.2,00.0,31.5,24.3,15.4,-001.9,0024.66,0015.49,0014.32
2023-01-17 06:07:00,,0814.3,5.00,0.00,22.6,21.2,00.0,31.5,24.3,15.0,-001.9,0025.05,0015.08,0013.93
2023-01-17 06:08:00,,0814.4,5.00,0.00,22.6,21.2,00.0,31.5,24.3,15.0,-001.6,0026.83,0014.76,0013.60
2023-01-17 06:09:00,,0814.3,5.00,0.00,22.6,21.2,00.0,31.5,24.2,15.1,-001.8,0028.04,0014.59,0013.35
2023-01-17 06:10:00,,0814.0,5.00,0.00,22.5,21.1,00.0,31.5,24.2,15.3,-001.8,0028.03,0014.49,0013.25
2023-01-17 06:11:00,,0814.2,4.99,0.00,22.5,21.1,00.0,31.5,24.2,15.4,-002.0,0027.66,0014.40,0013.21
2023-01-17 06:12:00,,0814.4,5.02,0.00,22.5,21.0,00.0,31.5,24.2,15.3,-002.3,0028.05,0014.22,0013.02
2023-01-17 06:13:00,,0814.3,5.00,0.00,22.5,21.0,00.0,31.5,24.2,15.0,-002.2,0028.59,0013.97,0012.69
2023-01-17 06:14:00,,0813.9,5.00,0.00,22.5,21.0,00.0,31.5,24.1,14.8,-001.8,0030.63,0013.73,0012.34
2023-01-17 06:15:00,,0813.9,5.00,0.00,22.4,21.0,00.0,31.4,24.1,14.3,-001.5,0030.38,0013.29,0011.81
2023-01-17 06:16:00,,0813.9,5.01,0.00,22.4,21.0,00.0,31.4,24.0,14.0,-001.6,0030.55,0012.84,0011.21
2023-01-17 06:17:00,,0813.9,5.01,0.00,22.4,20.9,00.0,31.4,24.0,13.9,-001.7,0030.22,0012.51,0010.73
2023-01-17 06:18:00,,0813.9,5.00,0.00,22.4,20.9,00.0,31.4,24.1,13.9,-001.5,0030.39,0012.49,0010.61
2023-01-17 06:19:00,,0814.2,5.00,0.00,22.4,21.0,00.0,31.4,24.1,14.0,-001.5,0030.76,0012.50,0010.54
2023-01-17 06:20:00,,0814.1,4.99,0.00,22.4,21.6,00.0,31.3,24.3,13.8,-001.1,0031.31,0012.39,0010.38
2023-01-17 06:21:00,,0814.3,5.00,0.00,22.6,22.5,00.0,31.3,24.5,13.6,-000.7,0031.32,0012.03,0010.02
2023-01-17 06:22:00,,0814.3,5.00,0.00,22.7,23.0,00.0,31.4,24.7,13.4,-000.6,0031.92,0011.67,0009.58
2023-01-17 06:23:00,,0814.2,4.98,0.00,22.7,22.6,00.0,31.4,24.7,13.3,-000.3,0032.10,0011.39,0009.21
2023-01-17 06:24:00,,0814.0,4.99,0.00,22.7,22.3,00.0,31.5,24.6,13.1,-000.5,0032.18,0011.13,0008.97
2023-01-17 06:25:00,,0814.1,4.99,0.00,22.7,22.0,00.0,31.5,24.6,13.1,-000.8,0031.25,0010.94,0008.81
2023-01-17 06:26:00,,0814.0,4.99,0.00,22.7,21.7,00.0,31.5,24.6,13.2,-001.0,0032.28,0011.00,0008.83
2023-01-17 06:27:00,,0813.6,5.01,0.00,22.7,21.6,00.0,31.5,24.5,13.2,-000.8,0032.54,0011.05,0008.90
2023-01-17 06:28:00,,0813.6,5.00,0.00,22.7,21.5,00.0,31.5,24.5,13.2,-000.6,0032.38,0011.09,0008.97
2023-01-17 06:29:00,,0813.6,5.01,0.00,22.7,21.4,00.0,31.5,24.5,13.0,-000.5,0032.03,0010.99,0008.89
2023-01-17 06:30:00,,0813.7,5.00,0.00,22.7,21.4,00.0,31.5,24.4,13.1,-000.6,0031.55,0010.86,0008.74
2023-01-17 06:31:00,,0814.2,5.01,0.00,22.7,21.4,00.0,31.5,24.4,13.1,-000.7,0031.97,0010.77,0008.63
2023-01-17 06:32:00,,0814.3,4.99,0.00,22.7,21.4,00.0,31.5,24.4,13.7,-000.6,0033.79,0011.08,0008.86
2023-01-17 06:33:00,,0814.2,5.01,0.00,22.7,21.3,00.0,31.5,24.4,14.3,-000.6,0034.33,0011.62,0009.44
2023-01-17 06:34:00,,0814.3,5.00,0.00,22.6,21.3,00.0,31.5,24.4,14.5,-001.1,0034.26,0012.13,0010.04
2023-01-17 06:35:00,,0814.3,4.99,0.00,22.6,21.3,00.0,31.5,24.4,14.4,-001.3,0034.50,0012.60,0010.56
2023-01-17 06:36:00,,0813.9,4.99,0.00,22.6,21.3,00.0,31.5,24.4,14.0,-001.1,0034.65,0012.85,0010.83
2023-01-17 06:37:00,,0813.9,5.00,0.00,22.6,21.3,00.0,31.5,24.4,13.9,-001.3,0032.98,0012.98,0011.03
2023-01-17 06:38:00,,0813.9,4.99,0.00,22.6,21.3,00.0,31.5,24.4,14.2,-000.9,0032.49,0013.33,0011.45
2023-01-17 06:39:00,,0813.9,4.99,0.00,22.6,21.3,00.0,31.5,24.4,14.7,-000.7,0032.56,0013.91,0012.11
2023-01-17 06:40:00,,0813.9,4.99,0.00,22.6,21.3,00.0,31.5,24.4,14.6,-001.1,0033.09,0014.44,0012.72
2023-01-17 06:41:00,,0813.9,5.01,0.00,22.6,21.2,00.0,31.5,24.4,14.8,-001.5,0032.17,0014.98,0013.36
2023-01-17 06:42:00,,0813.9,4.99,0.00,22.6,21.2,00.0,31.5,24.3,15.0,-001.7,0031.13,0015.61,0014.12
2023-01-17 06:43:00,,0813.9,4.99,0.00,22.5,21.1,00.0,31.5,24.2,15.1,-001.5,0029.60,0016.08,0014.67
2023-01-17 06:44:00,,0813.9,5.00,0.00,22.5,20.9,00.0,31.5,24.2,15.2,-001.3,0028.94,0016.25,0014.90
2023-01-17 06:45:00,,0813.9,4.98,0.00,22.5,20.9,00.0,31.5,24.2,15.3,-001.3,0028.78,0016.51,0015.12
2023-01-17 06:46:00,,0813.9,4.99,0.00,22.5,20.9,00.0,31.4,24.2,15.3,-001.3,0028.77,0016.85,0015.47
2023-01-17 06:47:00,,0814.2,4.99,0.00,22.4,20.9,00.0,31.4,24.1,15.4,-000.9,0028.32,0017.34,0016.00
2023-01-17 06:48:00,,0814.3,5.00,0.00,22.5,21.4,00.0,31.4,24.3,15.4,-001.0,0029.19,0017.90,0016.60
2023-01-17 06:49:00,,0814.2,5.01,0.00,22.6,22.3,00.0,31.4,24.5,15.4,-001.1,0029.43,0018.08,0016.84
2023-01-17 06:50:00,,0814.2,5.00,0.00,22.7,23.0,00.0,31.4,24.7,15.3,-001.1,0029.09,0017.95,0016.75
2023-01-17 06:51:00,,0814.2,4.99,0.00,22.7,22.7,00.0,31.5,24.7,15.2,-001.0,0028.16,0017.97,0016.78
2023-01-17 06:52:00,,0814.3,5.00,0.00,22.7,22.3,00.0,31.5,24.6,15.2,-000.5,0027.56,0017.97,0016.75
2023-01-17 06:53:00,,0814.2,5.00,0.00,22.7,22.0,00.0,31.5,24.6,15.3,-000.3,0026.56,0017.83,0016.61
2023-01-17 06:54:00,,0813.9,4.99,0.00,22.7,21.8,00.0,31.5,24.6,15.3,-000.6,0025.83,0017.60,0016.38
2023-01-17 06:55:00,,0814.2,5.03,0.00,22.7,21.7,00.0,31.5,24.6,15.3,-000.6,0025.51,0017.37,0016.15
2023-01-17 06:56:00,,0814.3,5.01,0.00,22.7,21.6,00.0,31.5,24.5,15.2,-000.3,0025.05,0017.12,0015.92
2023-01-17 06:57:00,,0814.2,5.00,0.00,22.7,21.5,00.0,31.6,24.6,15.2,-000.0,0024.57,0016.87,0015.70
2023-01-17 06:58:00,,0814.3,5.01,0.00,22.7,21.5,00.0,31.6,24.6,15.2,-000.4,0024.90,0016.68,0015.51
2023-01-17 06:59:00,,0814.3,4.99,0.00,22.7,21.5,00.0,31.6,24.5,15.2,-000.4,0023.98,0016.44,0015.35
